EW2802 Weather Reports


Display with metric or nautical units.
time (UTC)temp
F
wind
direction
speed
MPH
gust
MPH
rain 1hr
in
rain 24hr
in
rain mn
in
humidity
%
barometer
mb
20180424102003 40 336 10.0 17.0 0.00 0.00 0.00 86 1023.7
20180424100003 41 339 11.0 20.0 0.00 0.00 0.00 87 1023.4
20180424095503 41 339 11.0 20.0 0.00 0.00 0.00 87 1023.4
20180424095003 41 342 10.0 20.0 0.00 0.00 0.00 87 1023.3
20180424093502 42 345 9.0 16.0 0.00 0.00 0.00 88 1022.8
20180424092502 42 338 10.0 16.0 0.00 0.00 0.00 88 1022.6
20180424091503 42 348 10.0 18.0 0.00 0.00 0.00 87 1022.4
20180424090502 43 338 12.0 21.0 0.00 0.00 0.00 87 1022.4
20180424090003 43 334 13.0 21.0 0.00 0.00 0.00 87 1022.2
20180424085503 43 332 13.0 19.0 0.00 0.00 0.00 86 1022.1
20180424084503 43 345 11.0 23.0 0.00 0.00 0.00 85 1021.9
20180424084002 44 342 11.0 23.0 0.00 0.00 0.00 84 1021.8
20180424083003 44 336 11.0 22.0 0.00 0.00 0.00 83 1021.6
20180424082503 44 340 12.0 20.0 0.00 0.00 0.00 83 1021.4
20180424082003 45 342 14.0 26.0 0.00 0.00 0.00 82 1021.1
20180424081503 46 344 13.0 26.0 0.00 0.00 0.00 79 1020.9
20180424081002 47 346 12.0 26.0 0.00 0.00 0.00 76 1020.8
20180424075002 50 347 15.0 24.0 0.00 0.00 0.00 65 1019.9
20180424074503 51 347 14.0 28.0 0.00 0.00 0.00 60 1019.8
20180424073503 53 347 6.0 22.0 0.00 0.00 0.00 46 1019.4
20180424073003 51 279 3.0 10.0 0.00 0.00 0.00 46 1019.2
20180424072503 50 230 4.0 7.0 0.00 0.00 0.00 46 1018.3
20180424070503 50 241 5.0 11.0 0.00 0.00 0.00 46 1018.1
20180424065502 51 240 5.0 11.0 0.00 0.00 0.00 45 1018.1
20180424065003 51 239 5.0 10.0 0.00 0.00 0.00 45 1018.1
20180424064503 52 236 5.0 10.0 0.00 0.00 0.00 45 1018.0
20180424064003 52 236 6.0 11.0 0.00 0.00 0.00 44 1018.0
20180424063503 53 234 6.0 15.0 0.00 0.00 0.00 43 1018.1
20180424063003 53 239 6.0 15.0 0.00 0.00 0.00 44 1018.0
20180424062003 52 241 5.0 10.0 0.00 0.00 0.00 45 1017.9
20180424061502 52 233 5.0 10.0 0.00 0.00 0.00 45 1017.8
20180424061002 52 234 5.0 9.0 0.00 0.00 0.00 45 1017.8
20180424060005 52 231 4.0 9.0 0.00 0.00 0.00 45 1017.8
20180424055003 53 212 3.0 8.0 0.00 0.00 0.00 44 1018.1
20180424054503 53 211 3.0 6.0 0.00 0.00 0.00 44 1018.1
20180424053003 53 214 3.0 6.0 0.00 0.00 0.00 45 1018.2
20180424052502 52 223 2.0 4.0 0.00 0.00 0.00 46 1018.0
20180424051503 52 249 5.0 9.0 0.00 0.00 0.00 46 1018.0
20180424050502 53 238 4.0 7.0 0.00 0.00 0.00 45 1018.0
20180424050003 54 216 4.0 7.0 0.00 0.00 0.00 44 1017.7
20180424045503 54 217 4.0 7.0 0.00 0.00 0.00 43 1017.8
20180424045003 54 224 4.0 9.0 0.00 0.00 0.00 44 1017.9
20180424044503 54 231 5.0 12.0 0.00 0.00 0.00 44 1017.8
20180424042503 54 226 4.0 8.0 0.00 0.00 0.00 42 1017.9
20180424042003 54 225 5.0 9.0 0.00 0.00 0.00 43 1018.0
20180424041503 55 215 5.0 9.0 0.00 0.00 0.00 43 1018.1
20180424041002 55 223 4.0 9.0 0.00 0.00 0.00 43 1018.1
20180424035503 55 208 4.0 8.0 0.00 0.00 0.00 43 1018.1
20180424034503 56 207 4.0 7.0 0.00 0.00 0.00 42 1018.1
20180424034003 57 206 4.0 7.0 0.00 0.00 0.00 41 1018.0
20180424033503 58 234 4.0 8.0 0.00 0.00 0.00 39 1018.1
20180424032003 58 218 3.0 6.0 0.00 0.00 0.00 39 1017.8
20180424031003 59 251 2.0 5.0 0.00 0.00 0.00 38 1017.6
20180424030503 59 251 3.0 5.0 0.00 0.00 0.00 37 1017.6
20180424030003 60 238 3.0 6.0 0.00 0.00 0.00 36 1017.5
20180424025502 60 244 3.0 6.0 0.00 0.00 0.00 37 1017.5
20180424023003 58 236 2.0 5.0 0.00 0.00 0.00 39 1017.3
20180424015503 62 238 3.0 5.0 0.00 0.00 0.00 33 1016.9
20180424014503 63 230 2.0 3.0 0.00 0.00 0.00 32 1016.8
20180424014003 63 233 2.0 4.0 0.00 0.00 0.00 32 1016.6
20180424013004 65 231 2.0 4.0 0.00 0.00 0.00 30 1016.9
20180424012502 65 212 2.0 5.0 0.00 0.00 0.00 30 1016.8
20180424012003 66 193 2.0 5.0 0.00 0.00 0.00 28 1016.7
20180424011503 68 160 1.0 4.0 0.00 0.00 0.00 27 1016.7
20180424011003 68 125 0.0 1.0 0.00 0.00 0.00 27 1016.7
20180424010003 68 156 1.0 2.0 0.00 0.00 0.00 27 1016.5
20180424005503 67 177 1.0 2.0 0.00 0.00 0.00 28 1016.6
20180424005002 67 194 1.0 1.0 0.00 0.00 0.00 28 1016.6
20180424003503 67 152 0.0 1.0 0.00 0.00 0.00 28 1016.4
20180424003003 67 149 1.0 2.0 0.00 0.00 0.00 28 1016.5
20180424002002 68 140 1.0 2.0 0.00 0.00 0.00 28 1016.5
20180424001503 68 125 1.0 4.0 0.00 0.00 0.00 28 1016.5
20180424000003 68 124 3.0 14.0 0.00 0.00 0.00 24 1016.4
20180423235502 68 157 2.0 12.0 0.00 0.00 0.00 26 1017.0
20180423235003 68 155 2.0 5.0 0.00 0.00 0.00 25 1016.7
20180423234003 68 106 6.0 17.0 0.00 0.00 0.00 24 1016.5
20180423232503 68 117 4.0 9.0 0.00 0.00 0.00 28 1016.3
20180423232004 68 118 5.0 9.0 0.00 0.00 0.00 29 1016.4
20180423231503 68 114 5.0 9.0 0.00 0.00 0.00 27 1016.5
20180423230503 70 109 4.0 11.0 0.00 0.00 0.00 26 1016.6
20180423225003 71 97 2.0 6.0 0.00 0.00 0.00 20 1016.4
20180423224503 71 90 2.0 6.0 0.00 0.00 0.00 20 1016.4
20180423223003 71 212 3.0 8.0 0.00 0.00 0.00 21 1016.7
20180423221003 69 268 12.0 24.0 0.00 0.00 0.00 22 1017.2
20180423220502 70 253 10.0 24.0 0.00 0.00 0.00 22 1017.3
20180423214503 72 232 2.0 8.0 0.00 0.00 0.00 21 1016.7
20180423214003 72 250 2.0 6.0 0.00 0.00 0.00 21 1016.8
20180423213503 72 175 3.0 10.0 0.00 0.00 0.00 22 1016.9
20180423213003 71 140 3.0 10.0 0.00 0.00 0.00 22 1016.8
20180423211503 70 295 6.0 18.0 0.00 0.00 0.00 22 1017.3
20180423210503 70 63 3.0 9.0 0.00 0.00 0.00 22 1017.3
20180423210003 71 68 3.0 9.0 0.00 0.00 0.00 23 1017.2
20180423205503 71 53 3.0 11.0 0.00 0.00 0.00 22 1017.2
20180423205003 70 41 3.0 11.0 0.00 0.00 0.00 24 1017.4
20180423204504 70 27 3.0 9.0 0.00 0.00 0.00 24 1017.3
20180423202503 69 35 5.0 12.0 0.00 0.00 0.00 26 1017.8
20180423200502 69 9 8.0 15.0 0.00 0.00 0.00 30 1018.2
20180423200003 68 353 10.0 17.0 0.00 0.00 0.00 30 1018.2
20180423195503 67 350 13.0 22.0 0.00 0.00 0.00 31 1018.4
20180423193004 68 254 4.0 10.0 0.00 0.00 0.00 24 1018.1
20180423192502 68 261 5.0 13.0 0.00 0.00 0.00 23 1018.2
20180423192003 68 264 7.0 13.0 0.00 0.00 0.00 23 1018.3
20180423191503 68 264 7.0 12.0 0.00 0.00 0.00 24 1018.3
20180423191003 68 301 5.0 15.0 0.00 0.00 0.00 23 1018.4
20180423190503 68 326 5.0 15.0 0.00 0.00 0.00 24 1018.3
20180423190004 68 328 7.0 11.0 0.00 0.00 0.00 26 1018.1
20180423184503 69 39 4.0 12.0 0.00 0.00 0.00 27 1018.0
20180423184003 69 42 3.0 12.0 0.00 0.00 0.00 27 1018.1
20180423183003 68 70 4.0 12.0 0.00 0.00 0.00 28 1018.3
20180423182003 68 46 8.0 23.0 0.00 0.00 0.00 29 1018.4
20180423181003 69 92 5.0 14.0 0.00 0.00 0.00 24 1017.9
20180423180003 69 31 5.0 15.0 0.00 0.00 0.00 28 1018.6
20180423174503 69 24 3.0 9.0 0.00 0.00 0.00 27 1018.6
20180423174002 68 25 4.0 9.0 0.00 0.00 0.00 30 1018.8
20180423173503 68 33 3.0 9.0 0.00 0.00 0.00 30 1018.9
20180423172503 67 75 7.0 13.0 0.00 0.00 0.00 30 1018.7
20180423171503 67 110 3.0 10.0 0.00 0.00 0.00 31 1018.8
20180423171003 67 82 6.0 11.0 0.00 0.00 0.00 32 1019.0
20180423170503 66 65 5.0 12.0 0.00 0.00 0.00 33 1019.0
20180423170004 67 36 2.0 12.0 0.00 0.00 0.00 34 1019.2
20180423165003 66 84 2.0 8.0 0.00 0.00 0.00 33 1019.1
20180423164503 66 87 2.0 8.0 0.00 0.00 0.00 33 1019.2
20180423164003 66 113 2.0 8.0 0.00 0.00 0.00 33 1019.2
20180423163503 65 122 2.0 8.0 0.00 0.00 0.00 35 1019.2
20180423163003 64 154 2.0 9.0 0.00 0.00 0.00 37 1019.2
20180423162003 63 133 2.0 4.0 0.00 0.00 0.00 42 1019.0
20180423161504 62 113 3.0 7.0 0.00 0.00 0.00 42 1019.0
20180423161003 62 110 3.0 7.0 0.00 0.00 0.00 43 1019.2
20180423160503 62 94 3.0 8.0 0.00 0.00 0.00 46 1019.3
20180423160003 61 89 3.0 8.0 0.00 0.00 0.00 47 1019.2
20180423154003 59 82 3.0 6.0 0.00 0.00 0.00 50 1019.3
20180423152503 58 129 1.0 5.0 0.00 0.00 0.00 46 1019.4
20180423151503 56 243 2.0 4.0 0.00 0.00 0.00 45 1019.4
20180423150003 55 238 3.0 6.0 0.00 0.00 0.00 49 1019.5
20180423145002 54 223 4.0 9.0 0.00 0.00 0.00 54 1019.5
20180423144503 54 219 4.0 9.0 0.00 0.00 0.00 57 1019.7
20180423144003 53 227 5.0 10.0 0.00 0.00 0.00 59 1019.6
20180423142503 51 234 4.0 12.0 0.00 0.00 0.00 63 1020.1
20180423141503 48 222 4.0 9.0 0.00 0.00 0.00 66 1020.2
20180423141003 47 232 4.0 9.0 0.00 0.00 0.00 68 1020.5
20180423140003 46 221 5.0 9.0 0.00 0.00 0.00 71 1020.1
20180423135503 45 212 5.0 9.0 0.00 0.00 0.00 73 1020.1
20180423134503 44 228 5.0 9.0 0.00 0.00 0.00 74 1020.1
20180423134003 43 217 5.0 9.0 0.00 0.00 0.00 76 1020.2
20180423133003 42 229 4.0 8.0 0.00 0.00 0.00 79 1020.1
20180423132503 41 239 5.0 11.0 0.00 0.00 0.00 79 1020.1
20180423131003 40 238 5.0 8.0 0.00 0.00 0.00 81 1020.2
20180423130503 39 238 5.0 10.0 0.00 0.00 0.00 81 1020.2
20180423125002 38 255 5.0 9.0 0.00 0.00 0.00 84 1020.2
20180423122503 37 216 3.0 6.0 0.00 0.00 0.00 85 1020.3
20180423120503 37 221 3.0 5.0 0.00 0.00 0.00 84 1020.2
20180423120004 37 233 3.0 5.0 0.00 0.00 0.00 83 1019.7
20180423115003 37 228 4.0 7.0 0.00 0.00 0.00 84 1019.8
20180423114503 37 224 4.0 8.0 0.00 0.00 0.00 85 1019.9
20180423114003 37 223 3.0 8.0 0.00 0.00 0.00 85 1019.8
20180423113003 37 233 2.0 5.0 0.00 0.00 0.00 83 1019.8
20180423112503 37 245 2.0 4.0 0.00 0.00 0.00 83 1019.8
20180423111003 37 245 3.0 6.0 0.00 0.00 0.00 83 1019.8
20180423105503 38 218 3.0 5.0 0.00 0.00 0.00 81 1019.9
20180423104505 39 238 3.0 5.0 0.00 0.00 0.00 80 1019.9
20180423104003 39 242 3.0 5.0 0.00 0.00 0.00 80 1020.1